Total_Precipitation_Accumulation
0.01 0.02 0.01 0.02 0.01 0.02 0.03 0.08 0.08 0.09 0.08 0.11 0.14 0.16 0.15 0.13 0.13 0.14 0.11 0.08 0.11 0.11 0.10 0.08 0.18 0.28 0.16 0.00 0.00 0.00 0.00 0.03 0.08 0.26 0.10 0.01 0.00 0.00 0.00 0.00 0.00 0.00 0.00 0.00 0.00 0.00 0.00
0.02 0.02 0.03 0.02 0.02 0.03 0.05 0.05 0.11 0.13 0.12 0.13 0.12 0.13 0.14 0.17 0.15 0.14 0.10 0.11 0.11 0.15 0.13 0.11 0.16 0.35 0.10 0.00 0.00 0.00 0.01 0.06 0.06 0.11 0.14 0.08 0.01 0.00 0.00 0.00 0.00 0.00 0.00 0.00 0.00 0.00 0.00
0.02 0.03 0.04 0.02 0.02 0.04 0.06 0.05 0.07 0.12 0.16 0.14 0.14 0.13 0.13 0.16 0.17 0.14 0.11 0.13 0.15 0.13 0.13 0.17 0.25 0.24 0.13 0.02 0.00 0.00 0.01 0.08 0.11 0.11 0.12 0.11 0.04 0.01 0.01 0.00 0.00 0.00 0.00 0.00 0.00 0.00 0.00
0.02 0.03 0.03 0.02 0.04 0.07 0.06 0.07 0.07 0.09 0.13 0.16 0.19 0.14 0.12 0.19 0.21 0.17 0.14 0.16 0.14 0.16 0.20 0.20 0.33 0.36 0.09 0.00 0.00 0.00 0.00 0.01 0.08 0.14 0.14 0.23 0.11 0.04 0.03 0.01 0.00 0.00 0.00 0.00 0.00 0.00 0.00
0.04 0.03 0.03 0.03 0.06 0.08 0.08 0.08 0.09 0.08 0.11 0.19 0.24 0.16 0.14 0.23 0.28 0.20 0.14 0.22 0.36 0.34 0.36 0.43 0.49 0.27 0.05 0.00 0.00 0.00 0.00 0.00 0.01 0.03 0.09 0.29 0.29 0.08 0.02 0.02 0.00 0.00 0.00 0.00 0.00 0.00 0.00
0.04 0.03 0.04 0.04 0.08 0.10 0.09 0.12 0.12 0.09 0.10 0.16 0.22 0.18 0.21 0.22 0.25 0.30 0.29 0.31 0.51 0.62 0.62 0.77 0.72 0.36 0.04 0.00 0.00 0.00 0.00 0.00 0.00 0.07 0.16 0.30 0.31 0.21 0.04 0.02 0.01 0.00 0.00 0.00 0.00 0.00 0.00
0.05 0.04 0.04 0.07 0.10 0.10 0.12 0.14 0.12 0.13 0.13 0.16 0.18 0.21 0.19 0.26 0.42 0.45 0.59 0.92 1.03 1.01 0.77 0.59 0.37 0.15 0.01 0.00 0.00 0.00 0.00 0.00 0.03 0.14 0.03 0.12 0.16 0.17 0.08 0.01 0.00 0.00 0.00 0.00 0.00 0.00 0.00
0.05 0.04 0.04 0.11 0.12 0.11 0.13 0.12 0.13 0.16 0.19 0.17 0.18 0.17 0.21 0.31 0.42 0.64 0.92 0.84 0.59 0.56 0.57 0.25 0.21 0.08 0.01 0.00 0.00 0.00 0.00 0.00 0.02 0.06 0.03 0.05 0.04 0.04 0.07 0.03 0.01 0.00 0.00 0.00 0.00 0.00 0.00
0.04 0.03 0.07 0.12 0.11 0.11 0.12 0.14 0.18 0.19 0.20 0.17 0.12 0.12 0.24 0.38 0.58 0.73 0.76 0.49 0.23 0.56 0.68 0.33 0.36 0.21 0.03 0.00 0.00 0.00 0.00 0.00 0.01 0.03 0.01 0.00 0.01 0.01 0.02 0.01 0.02 0.00 0.00 0.00 0.00 0.00 0.00
0.04 0.04 0.09 0.11 0.11 0.10 0.11 0.19 0.21 0.24 0.21 0.12 0.09 0.14 0.36 0.60 0.82 0.93 0.78 0.50 0.48 0.87 0.68 0.40 0.53 0.29 0.03 0.01 0.00 0.00 0.00 0.00 0.00 0.02 0.01 0.00 0.00 0.01 0.00 0.00 0.00 0.00 0.00 0.00 0.00 0.00 0.00
0.04 0.05 0.12 0.12 0.12 0.10 0.15 0.24 0.26 0.20 0.11 0.10 0.13 0.27 0.47 1.08 1.23 0.88 1.12 0.78 0.99 1.04 0.61 0.26 0.39 0.27 0.06 0.01 0.00 0.02 0.02 0.00 0.00 0.00 0.00 0.00 0.00 0.00 0.00 0.00 0.00 0.00 0.00 0.00 0.00 0.00 0.01
0.03 0.08 0.15 0.14 0.12 0.12 0.19 0.22 0.15 0.08 0.13 0.19 0.31 0.35 0.59 0.96 0.92 0.46 0.70 1.29 1.57 1.32 0.69 0.56 0.47 0.34 0.11 0.04 0.01 0.02 0.03 0.03 0.01 0.02 0.02 0.00 0.00 0.00 0.00 0.00 0.00 0.00 0.00 0.01 0.02 0.05 0.09
0.04 0.11 0.16 0.15 0.13 0.13 0.17 0.13 0.06 0.10 0.29 0.47 0.39 0.29 0.70 0.91 0.97 0.58 0.74 1.60 1.58 0.78 0.63 0.39 0.27 0.11 0.04 0.03 0.04 0.04 0.04 0.04 0.03 0.05 0.06 0.03 0.01 0.00 0.00 0.00 0.00 0.03 0.14 0.15 0.14 0.16 0.04
0.07 0.14 0.16 0.15 0.14 0.14 0.11 0.07 0.09 0.29 0.62 0.59 0.26 0.24 0.46 0.76 0.63 1.19 0.89 1.09 0.98 0.53 0.45 0.18 0.07 0.05 0.04 0.02 0.04 0.04 0.03 0.03 0.02 0.03 0.06 0.04 0.01 0.00 0.00 0.00 0.00 0.01 0.06 0.15 0.05 0.00 0.00
0.08 0.14 0.15 0.15 0.14 0.14 0.06 0.06 0.16 0.44 0.63 0.57 0.39 0.17 0.55 0.90 0.72 1.22 1.08 0.73 0.97 0.75 0.46 0.13 0.11 0.11 0.11 0.02 0.03 0.03 0.02 0.00 0.00 0.01 0.03 0.03 0.01 0.00 0.00 0.00 0.01 0.05 0.10 0.07 0.16 0.12 0.14
0.10 0.13 0.15 0.16 0.12 0.11 0.05 0.07 0.29 0.56 0.83 0.63 0.33 0.18 0.60 0.86 0.70 1.11 0.98 0.58 0.74 0.66 0.16 0.02 0.15 0.08 0.04 0.02 0.02 0.02 0.01 0.00 0.00 0.00 0.00 0.00 0.01 0.00 0.00 0.01 0.02 0.04 0.03 0.10 0.33 0.19 0.09
0.11 0.12 0.16 0.14 0.10 0.07 0.04 0.07 0.19 0.32 0.74 0.62 0.36 0.47 0.65 0.83 0.79 1.02 0.71 0.40 0.45 0.33 0.15 0.02 0.00 0.00 0.00 0.00 0.00 0.00 0.00 0.00 0.00 0.00 0.00 0.01 0.02 0.01 0.01 0.01 0.00 0.03 0.12 0.13 0.13 0.06 0.02
0.10 0.12 0.16 0.11 0.09 0.05 0.04 0.04 0.09 0.27 0.82 0.75 0.40 0.68 0.60 1.10 1.12 0.76 0.36 0.30 0.55 0.35 0.03 0.00 0.00 0.00 0.00 0.00 0.00 0.00 0.00 0.00 0.00 0.00 0.00 0.00 0.03 0.02 0.00 0.00 0.00 0.01 0.02 0.09 0.32 0.09 0.16
0.11 0.12 0.13 0.10 0.08 0.03 0.03 0.03 0.06 0.24 0.69 0.79 0.59 0.49 0.91 0.82 0.52 0.36 0.32 0.24 0.20 0.05 0.02 0.01 0.00 0.00 0.00 0.01 0.00 0.00 0.00 0.00 0.00 0.00 0.00 0.00 0.05 0.05 0.04 0.06 0.08 0.16 0.06 0.16 0.37 0.57 0.40
0.10 0.11 0.12 0.08 0.06 0.03 0.03 0.02 0.04 0.21 0.50 0.45 0.26 0.74 1.54 0.80 0.28 0.30 0.46 0.46 0.25 0.05 0.01 0.00 0.00 0.01 0.03 0.02 0.00 0.00 0.00 0.00 0.00 0.00 0.00 0.01 0.05 0.07 0.12 0.19 0.43 0.39 0.14 0.29 0.70 0.81 0.16
0.09 0.10 0.10 0.08 0.06 0.03 0.02 0.01 0.03 0.23 0.17 0.14 0.11 0.30 0.50 0.47 0.26 0.17 0.15 0.10 0.04 0.02 0.00 0.00 0.02 0.02 0.04 0.02 0.01 0.00 0.00 0.00 0.00 0.00 0.00 0.05 0.11 0.11 0.15 0.17 0.56 0.41 0.19 0.24 0.57 0.26 0.33
0.08 0.10 0.08 0.07 0.05 0.02 0.01 0.01 0.04 0.25 0.16 0.10 0.14 0.19 0.10 0.04 0.03 0.04 0.06 0.08 0.03 0.00 0.01 0.00 0.00 0.04 0.04 0.03 0.01 0.00 0.00 0.00 0.00 0.00 0.03 0.11 0.13 0.14 0.14 0.13 0.25 0.27 0.08 0.11 0.06 0.03 0.06
0.08 0.07 0.10 0.07 0.03 0.02 0.02 0.01 0.02 0.17 0.30 0.21 0.32 0.23 0.08 0.06 0.02 0.01 0.01 0.00 0.01 0.00 0.00 0.00 0.00 0.05 0.02 0.02 0.01 0.01 0.00 0.00 0.00 0.01 0.03 0.09 0.13 0.29 0.22 0.18 0.11 0.20 0.14 0.06 0.02 0.04 0.06
0.06 0.06 0.09 0.05 0.02 0.02 0.01 0.01 0.01 0.13 0.33 0.40 0.36 0.30 0.09 0.10 0.03 0.01 0.01 0.02 0.01 0.01 0.00 0.00 0.00 0.02 0.01 0.02 0.03 0.01 0.01 0.00 0.01 0.01 0.00 0.03 0.15 0.28 0.23 0.24 0.35 0.31 0.15 0.03 0.04 0.05 0.02
0.06 0.06 0.08 0.04 0.02 0.02 0.01 0.00 0.01 0.08 0.15 0.25 0.28 0.36 0.12 0.03 0.01 0.01 0.01 0.01 0.04 0.05 0.02 0.02 0.01 0.00 0.02 0.08 0.08 0.01 0.00 0.00 0.00 0.00 0.01 0.01 0.08 0.19 0.17 0.19 0.20 0.08 0.12 0.12 0.06 0.07 0.03
0.05 0.07 0.07 0.04 0.03 0.02 0.01 0.00 0.00 0.04 0.07 0.21 0.30 0.46 0.13 0.04 0.01 0.00 0.00 0.00 0.02 0.03 0.03 0.05 0.02 0.01 0.03 0.14 0.13 0.04 0.00 0.00 0.01 0.00 0.00 0.02 0.02 0.13 0.07 0.11 0.00 0.02 0.05 0.03 0.01 0.04 0.01
0.05 0.05 0.06 0.04 0.03 0.02 0.02 0.00 0.00 0.02 0.04 0.13 0.34 0.32 0.07 0.06 0.02 0.00 0.00 0.00 0.00 0.01 0.04 0.06 0.03 0.02 0.07 0.16 0.13 0.04 0.01 0.00 0.00 0.01 0.01 0.04 0.08 0.11 0.09 0.15 0.00 0.00 0.00 0.00 0.00 0.01 0.00
0.04 0.04 0.05 0.04 0.03 0.03 0.02 0.01 0.00 0.02 0.04 0.10 0.28 0.30 0.13 0.06 0.03 0.00 0.00 0.00 0.00 0.00 0.02 0.01 0.01 0.03 0.14 0.16 0.12 0.04 0.02 0.01 0.00 0.00 0.00 0.01 0.01 0.03 0.04 0.06 0.00 0.00 0.00 0.00 0.00 0.00 0.00
0.04 0.03 0.05 0.04 0.03 0.03 0.02 0.01 0.02 0.03 0.05 0.07 0.32 0.18 0.08 0.04 0.04 0.00 0.00 0.00 0.00 0.01 0.01 0.02 0.04 0.06 0.13 0.12 0.13 0.12 0.05 0.01 0.00 0.00 0.00 0.00 0.00 0.00 0.00 0.00 0.00 0.00 0.00 0.00 0.00 0.00 0.00